Houston, TX

1:26 PM CST on January 20, 2017 (GMT -0600)
Hobby

Weather History for KHOU - September, 2013

Change the Weather History Date:

Monday, September 9, 2013

  Actual Average Record
Temperature  
Mean Temperature 83 °F 82 °F  
Max Temperature 92 °F 91 °F 100 °F (1909)
Min Temperature 74 °F 72 °F 59 °F (1988)
Degree Days  
Heating Degree Days 0 0  
Month to date heating degree days 0 0  
Since 1 July heating degree days 0 0  
Cooling Degree Days 18 17  
Month to date cooling degree days 182 157  
Year to date cooling degree days 2575 2539  
Growing Degree Days 32 (Base 50)    
Moisture  
Dew Point 72 °F    
Average Humidity 76    
Maximum Humidity 100    
Minimum Humidity 52    
Precipitation  
Precipitation 0.00 in 0.15 in 4.22 in (1900)
Month to date precipitation 0.40 1.30  
Year to date precipitation 21.60 33.17  
Sea Level Pressure  
Sea Level Pressure 29.97 in    
Wind  
Wind Speed 4 mph (ESE)    
Max Wind Speed 22 mph    
Max Gust Speed 35 mph    
Visibility 10 miles    
Events      
T = Trace of Precipitation, MM = Missing Value Source: NWS Daily Summary

Daily Weather History Graph

Daily Weather History Graph

Search for Another Location

Airport or City:

Trip Planner

Search our weather history database for the weather conditions in past years. The results will help you decide how hot, cold, wet, or windy it might be!

Date:

Astronomy

Sep. 09, 2013 Rise Set
Actual Time 7:02 AM CDT 7:33 PM CDT
Civil Twilight 6:38 AM CDT 7:57 PM CDT
Nautical Twilight 6:10 AM CDT 8:25 PM CDT
Astronomical Twilight 5:41 AM CDT 8:53 PM CDT
Moon 11:02 AM CDT (9/9) 10:14 PM CDT (9/9)
Length of Visible Light 13h 18m
Length of Day
12h 30m
Waxing Crescent, 19% of the Moon is Illuminated
Sep 9
Waxing Crescent
Sep 12
First Quarter
Sep 19
Full
Sep 26
Last Quarter
Oct 4
New

Hourly Weather History & Observations

Time (CDT) Temp. Heat Index Dew Point Humidity Pressure Visibility Wind Dir Wind Speed Gust Speed Precip Events Conditions
12:53 AM 78.1 °F - 73.0 °F 84% 29.94 in 10.0 mi Calm Calm - N/A   Scattered Clouds
1:53 AM 77.0 °F - 73.0 °F 88% 29.95 in 10.0 mi Calm Calm - N/A   Scattered Clouds
2:53 AM 75.9 °F - 73.0 °F 91% 29.94 in 10.0 mi Calm Calm - N/A   Scattered Clouds
3:53 AM 78.1 °F - 73.0 °F 84% 29.94 in 10.0 mi Calm Calm - N/A   Scattered Clouds
4:53 AM 77.0 °F - 73.0 °F 88% 29.94 in 10.0 mi ESE 3.5 mph - N/A   Scattered Clouds
5:53 AM 78.1 °F - 73.0 °F 84% 29.95 in 10.0 mi ESE 3.5 mph - N/A   Scattered Clouds
6:53 AM 77.0 °F - 72.0 °F 84% 29.96 in 10.0 mi East 3.5 mph - N/A   Scattered Clouds
7:53 AM 79.0 °F - 73.0 °F 82% 29.98 in 10.0 mi Calm Calm - N/A   Scattered Clouds
8:53 AM 82.9 °F 88.8 °F 73.0 °F 72% 29.99 in 10.0 mi East 6.9 mph - N/A   Scattered Clouds
9:53 AM 84.9 °F 90.7 °F 72.0 °F 65% 30.00 in 10.0 mi East 9.2 mph - N/A   Scattered Clouds
10:53 AM 86.0 °F 93.8 °F 73.9 °F 67% 30.01 in 10.0 mi East 9.2 mph - N/A   Scattered Clouds
11:53 AM 87.1 °F 92.8 °F 71.1 °F 59% 30.00 in 10.0 mi East 12.7 mph - N/A   Scattered Clouds
12:53 PM 90.0 °F 96.4 °F 71.1 °F 54% 29.99 in 10.0 mi East 12.7 mph 17.3 mph N/A   Scattered Clouds
1:53 PM 90.0 °F 94.5 °F 69.1 °F 50% 29.98 in 10.0 mi ESE 16.1 mph 25.3 mph N/A   Scattered Clouds
2:53 PM 88.0 °F 93.8 °F 71.1 °F 57% 29.97 in 10.0 mi East 15.0 mph 23.0 mph N/A   Mostly Cloudy
3:53 PM 87.1 °F 91.3 °F 69.1 °F 55% 29.96 in 10.0 mi ESE 13.8 mph - N/A   Mostly Cloudy
4:53 PM 86.0 °F 91.5 °F 71.1 °F 61% 29.97 in 10.0 mi SE 10.4 mph 20.7 mph N/A   Mostly Cloudy
5:53 PM 84.9 °F 90.7 °F 72.0 °F 65% 29.97 in 10.0 mi ESE 11.5 mph 18.4 mph N/A   Mostly Cloudy
6:53 PM 82.9 °F 88.8 °F 73.0 °F 72% 29.98 in 10.0 mi South 11.5 mph - N/A   Mostly Cloudy
7:53 PM 79.0 °F - 70.0 °F 74% 29.97 in 10.0 mi SSE 5.8 mph - N/A   Mostly Cloudy
8:53 PM 79.0 °F - 71.1 °F 77% 29.98 in 10.0 mi Calm Calm - N/A   Mostly Cloudy
9:53 PM 80.1 °F 83.8 °F 72.0 °F 76% 29.97 in 10.0 mi Calm Calm - 0.00 in   Mostly Cloudy
10:53 PM 80.1 °F 84.2 °F 73.0 °F 79% 29.98 in 10.0 mi ESE 3.5 mph - N/A   Mostly Cloudy
11:53 PM 79.0 °F - 73.0 °F 82% 29.99 in 10.0 mi SSE 3.5 mph - N/A   Scattered Clouds